378P/McNaught (2020)

Japanese version
Home page
Updated on September 11, 2021

---------------------------------------------------------------------

* Profile

Designation 378P/2019 E2
Recovery Date March 10, 2019
Magnitude 21.9 mag
Recoverer E. Schwab (Egelsbach, Germany), D. Abreu (European Space Agency's Optical Ground Station, Tenerife)

* Pictures

* Orbital Elements

Epoch 2020 Nov. 7.0 TT = JDT 2459160.5
T 2020 Oct. 20.88502 TT                                 Rudenko
q   3.3808591            (2000.0)            P               Q
n   0.06112678     Peri.  194.04863     +0.30501181     +0.89476006
a   6.3823663      Node    94.51328     -0.83912907     +0.41445212
e   0.4702812      Incl.   19.09661     -0.45036675     -0.16623438
P  16.1
From 214 observations 2003 May 30-2021 July 16, mean residual 1".0.

* Magnitudes Graph

        10.0 + 5 log d + 7.5 log r(t - 1000)

---------------------------------------------------------------------

The orbital elements are published on M.P.E.C. 2021-O56.
The magnitudes graphs are made with Comet for Windows.

---------------------------------------------------------------------

Copyright(C) Seiichi Yoshida (comet@aerith.net). All rights reserved.